This is the latest recevied weather packets stored in our database for station/object W9WRP. If no packets are shown the sender has not sent any weather packets the latest 10 day(s).
| Time | Temp. | Humidity | Pressure | Rain* | Wind** | Luminosity | Snow |
|---|---|---|---|---|---|---|---|
| 1787614986 | 41.67° C | 17% | 1013.5 hPa | 0 mm | - | 262 W/m² | - |
| 1787614681 | 42.22° C | 17% | 1013.6 hPa | 0 mm | - | 260 W/m² | - |
| 1787614378 | 41.11° C | 17% | 1013.8 hPa | 0 mm | - | 251 W/m² | - |
| 1787614075 | 41.11° C | 18% | 1014 hPa | 0 mm | - | 224 W/m² | - |
| 1787613770 | 41.67° C | 17% | 1013.9 hPa | 0 mm | - | 150 W/m² | - |
| 1787613465 | 41.67° C | 17% | 1013.8 hPa | 0 mm | - | 330 W/m² | - |
| 1787613161 | 41.67° C | 18% | 1013.9 hPa | 0 mm | - | 282 W/m² | - |
| 1787612857 | 41.67° C | 18% | 1014 hPa | 0 mm | - | 347 W/m² | - |
| 1787612548 | 41.11° C | 18% | 1014.3 hPa | 0 mm | - | 133 W/m² | - |
| 1787612243 | 41.67° C | 18% | 1014 hPa | 0 mm | - | 134 W/m² | - |
| 1787611939 | 41.67° C | 18% | 1014.1 hPa | 0 mm | - | 413 W/m² | - |
| 1787611635 | 42.22° C | 18% | 1014.1 hPa | 0 mm | - | 329 W/m² | - |
| 1787611331 | 41.11° C | 19% | 1014 hPa | 0 mm | - | 357 W/m² | - |
| 1787611026 | 41.67° C | 19% | 1014.2 hPa | 0 mm | - | 427 W/m² | - |
| 1787610722 | 41.11° C | 19% | 1014.4 hPa | 0 mm | - | 364 W/m² | - |
| 1787610417 | 41.11° C | 19% | 1014.4 hPa | 0 mm | - | 471 W/m² | - |
| 1787610115 | 40.56° C | 20% | 1014.5 hPa | 0 mm | - | 326 W/m² | - |
| 1787609814 | 40.56° C | 20% | 1014.6 hPa | 0 mm | - | 503 W/m² | - |
| 1787609510 | 41.67° C | 19% | 1014.7 hPa | 0 mm | - | 516 W/m² | - |
| 1787609209 | 42.78° C | 19% | 1014.7 hPa | 0 mm | - | 500 W/m² | - |
| 1787608899 | 42.22° C | 19% | 1014.8 hPa | 0 mm | - | 452 W/m² | - |
| 1787608599 | 42.22° C | 20% | 1014.9 hPa | 0 mm | - | 549 W/m² | - |
| 1787608289 | 40.56° C | 21% | 1014.8 hPa | 0 mm | - | 428 W/m² | - |
| 1787607986 | 42.22° C | 19% | 1015 hPa | 0 mm | - | 568 W/m² | - |
| 1787607681 | 41.67° C | 20% | 1015 hPa | 0 mm | - | 579 W/m² | - |
* Rain latest hour (hover to see other rain measurements)
** Current wind speed in m/s (hover to see current wind gust speed)